Вернуться в каталог

PISAT

АктивенЛюбительское радиоSSO
NORAD 41784·PAYLOAD·🇮🇳 India

Запущен Sep 26, 2016 с Satish Dhawan Space Centre

Loading…

Ближайшие Пролёты (ближайшие 24 часа)

TLE

СвежийSource: Space-Track

Эпоха: Sep 13, 2026, 23:05 UTC

1 41784U 16059B   26256.96214645  .00000699  00000-0  12639-3 0  9991
2 41784  97.8245 253.6347 0027503 282.7355  77.0777 14.69123524532776

Отслеживайте PISAT в реальном времени с AllMySat

Download on the App Store